[[{"header":{"parameterUnit":"m.s-1","parameterCategory":2,"la1":30.2991,"la2":30.254,"lo1":-89.0895,"lo2":-89.0444,"dy":0.0017,"dx":0.0017,"nx":28,"ny":28,"refTime":"2025-04-01T21:00:00:Z","depth":"0","parameterNumber":2,"parameterNumberName":"U-component_of_CURRENTS"},"data":[0,0,0,0,0,0,0,0,0,0,0,0,0,0,0,0,0,0,0,0,0,0,0,0,0,0,0,0,0,0,0,0,0,0,0,0,0,0,0,0,0,0,0,0,0,0,0,0,0,0,0,0,0,0,0,0,0,0,-0.2699,-0.27,0,-0.2735,-0.2736,-0.2736,-0.2703,-0.2702,-0.27,-0.2699,-0.2661,-0.2661,-0.2661,0,0,0,0,0,0,0,0,0,0,0,0,0,-0.2609,-0.2611,-0.2699,-0.27,-0.2701,-0.2735,-0.2736,-0.2736,-0.2703,-0.2701,-0.27,-0.2699,-0.2661,-0.2661,-0.2661,0,0,0,0,0,0,0,0,0,0,0,0,0,-0.2645,-0.2611,-0.2699,-0.269,-0.269,-0.2735,-0.2736,-0.2736,-0.2703,-0.2701,-0.27,-0.2698,-0.2661,-0.2661,-0.2661,-0.2695,0,0,-0.2662,-0.2662,0,0,0,0,0,0,0,0,-0.2643,-0.2648,-0.2691,-0.2691,-0.2691,-0.2715,-0.269,-0.272,-0.2704,-0.2695,-0.2699,-0.2697,-0.2675,-0.2674,-0.2682,-0.2694,-0.2692,-0.2662,-0.2662,-0.2662,-0.2662,0,0,0,0,0,0,0,-0.264,-0.2646,-0.2711,-0.2692,-0.2692,-0.2687,-0.269,-0.2696,-0.2691,-0.2696,-0.2694,-0.2703,-0.2674,-0.2682,-0.2681,-0.2691,-0.2662,-0.2662,-0.2662,-0.2662,-0.2742,-0.2744,0,0,0,0,0,0,-0.2643,-0.2644,-0.271,-0.2712,-0.2665,-0.269,-0.2693,-0.2707,-0.2693,-0.269,-0.2704,-0.2701,-0.2683,-0.2681,-0.2679,-0.2731,-0.2662,-0.2662,-0.2662,-0.274,-0.2743,-0.2745,0,0,0,0,0,0,-0.2641,-0.2648,-0.2709,-0.268,-0.2688,-0.2694,-0.2709,-0.2709,-0.2709,-0.27,-0.2695,-0.2705,-0.2682,-0.2679,-0.2694,-0.2728,-0.2662,-0.2662,-0.2738,-0.2741,-0.2744,-0.2826,0,0,0,0,0,0,-0.2638,-0.2648,-0.2653,-0.2681,-0.269,-0.2742,-0.2711,-0.2711,-0.2719,-0.2715,-0.2699,-0.2694,-0.268,-0.2694,-0.2694,-0.2727,-0.2662,-0.2735,-0.2739,-0.2743,-0.282,-0.2831,-0.2841,0,0,0,0,0,-0.2635,-0.2655,-0.2653,-0.2661,-0.2699,-0.2743,-0.2748,-0.2744,-0.272,-0.2734,-0.2725,-0.2694,-0.2719,-0.2696,-0.2695,-0.2729,-0.2733,-0.2738,-0.2743,-0.2816,-0.2829,-0.284,0,0,0,0,0,0,-0.2615,-0.2655,-0.2653,-0.2682,-0.2712,-0.2738,-0.2749,-0.2747,-0.2752,-0.2741,-0.2719,-0.2716,-0.2743,-0.2729,-0.2704,-0.2766,-0.2722,-0.2727,-0.2778,-0.2791,-0.2801,-0.2787,-0.2662,0,0,0,0,0,-0.2617,-0.2639,-0.2677,-0.2698,-0.2715,-0.273,-0.2743,-0.2748,-0.276,-0.276,-0.2753,-0.2751,-0.2767,-0.277,-0.2777,-0.281,-0.2766,-0.2834,-0.2844,-0.2852,-0.2843,-0.2816,-0.2822,-0.2761,-0.2761,-0.2761,0,0,-0.2612,-0.2637,-0.2647,-0.2695,-0.2712,-0.2759,-0.2733,-0.2763,-0.2798,-0.2756,-0.2788,-0.2783,-0.2784,-0.2823,-0.2834,-0.2812,-0.285,-0.2858,-0.2866,-0.2851,-0.2822,-0.2827,-0.2832,-0.2764,-0.2763,-0.2763,0,0,-0.2631,-0.2641,-0.2673,-0.2708,-0.2749,-0.277,-0.2781,-0.2815,-0.2822,-0.2862,-0.2843,-0.2856,-0.2879,-0.2889,-0.2897,-0.2968,-0.2904,-0.2975,-0.3016,-0.2991,-0.2995,-0.2997,-0.2952,-0.295,-0.2981,-0.2981,-0.2982,0,-0.2621,-0.2671,-0.2688,-0.2738,-0.2768,-0.2779,-0.2828,-0.2855,-0.2888,-0.2896,-0.288,-0.2912,-0.2913,-0.2956,-0.2987,-0.2989,-0.2951,-0.2968,-0.3001,-0.3003,-0.3004,-0.2957,-0.2954,-0.2986,-0.2985,-0.2985,-0.2985,0,-0.2675,-0.2715,-0.2739,-0.2806,-0.2843,-0.2885,-0.2932,-0.2958,-0.2963,-0.298,-0.3011,-0.3013,-0.3022,-0.3043,-0.3039,-0.3066,-0.3027,-0.3014,-0.2963,-0.3015,-0.2963,-0.2958,-0.2992,-0.2991,-0.2989,-0.2988,0,0,-0.2644,-0.2755,-0.276,-0.2798,-0.288,-0.2911,-0.298,-0.3035,-0.3053,-0.3083,-0.31,-0.3147,-0.3119,-0.3126,-0.312,-0.311,-0.3101,-0.3071,-0.3068,-0.3014,-0.3023,-0.2962,-0.295,-0.3087,-0.3086,-0.3086,-0.2982,0,-0.2675,-0.2768,-0.2823,-0.2904,-0.2952,-0.2998,-0.3055,-0.3102,-0.3124,-0.3144,-0.315,-0.3163,-0.3161,-0.3154,-0.3152,-0.3109,-0.3091,-0.3129,-0.2991,-0.2987,-0.2916,-0.2944,-0.2864,-0.2761,-0.2977,-0.2976,-0.2975,0,-0.2702,-0.2762,-0.2849,-0.2942,-0.2965,-0.3015,-0.3075,-0.313,-0.3175,-0.3186,-0.3201,-0.3191,-0.3199,-0.3177,-0.3124,-0.3143,-0.309,-0.3053,-0.3047,-0.2953,-0.2917,-0.2745,-0.2743,-0.2736,-0.2967,-0.2967,-0.2968,0,-0.2651,-0.2771,-0.2832,-0.287,-0.2984,-0.3016,-0.3066,-0.3127,-0.3157,-0.3195,-0.3197,-0.3205,-0.3184,-0.3142,-0.3082,-0.3094,-0.2996,-0.2998,-0.2891,-0.2885,-0.277,-0.2754,-0.2729,-0.2947,-0.2947,-0.2948,-0.2948,0,-0.2655,-0.2698,-0.2808,-0.2841,-0.289,-0.2981,-0.3023,-0.3074,-0.3131,-0.3144,-0.3195,-0.3185,-0.3171,-0.3122,-0.3072,-0.2958,-0.2983,-0.2889,-0.2856,-0.2798,-0.2787,-0.2736,-0.2753,-0.2944,-0.2945,-0.2945,-0.2946,0,-0.2584,-0.267,-0.2731,-0.284,-0.2869,-0.2893,-0.2987,-0.3009,-0.3082,-0.3096,-0.3104,-0.3148,-0.3087,-0.3056,-0.297,-0.2923,-0.2785,-0.2788,-0.2713,-0.2674,-0.2575,-0.2599,-0.2492,-0.2421,-0.265,-0.2648,-0.2646,0,-0.2557,-0.2584,-0.2688,-0.2707,-0.2753,-0.281,-0.2843,-0.2954,-0.2981,-0.3056,-0.3045,-0.303,-0.2985,-0.2863,-0.278,-0.2668,-0.2676,-0.254,-0.2561,-0.2552,-0.2555,-0.2567,-0.2516,-0.2437,-0.2434,-0.2431,-0.2429,0,-0.2477,-0.2509,-0.2552,-0.2595,-0.2634,-0.2679,-0.2739,-0.2759,-0.287,-0.2895,-0.2897,-0.2875,-0.2797,-0.267,-0.2563,-0.2487,-0.2493,-0.2479,-0.2489,-0.2399,-0.2389,-0.231,-0.2521,-0.2404,-0.2407,-0.2409,-0.241,-0.2411,-0.2382,-0.238,-0.2427,-0.2452,-0.2494,-0.2509,-0.2492,-0.2569,-0.259,-0.2593,-0.2687,-0.2628,-0.2597,-0.2438,-0.2366,-0.2252,-0.2285,-0.2209,-0.2239,-0.2252,-0.2188,-0.2341,-0.2185,-0.2186,-0.2187,-0.2188,-0.2189,0,-0.2248,-0.2261,-0.228,-0.2303,-0.2278,-0.2354,-0.2383,-0.2336,-0.23,-0.2368,-0.236,-0.2357,-0.2257,-0.2237,-0.215,-0.2058,-0.2006,-0.2018,-0.2031,-0.1989,-0.2127,-0.2124,-0.1926,-0.1926,-0.1926,-0.1926,-0.1926,-0.1926,-0.2179,-0.2143,-0.2156,-0.207,-0.2076,-0.1988,-0.1964,-0.1924,-0.1937,-0.19,-0.1936,-0.2001,-0.2036,-0.22,-0.2096,-0.1997,-0.1947,-0.1883,-0.1893,-0.2033,-0.2055,-0.2075,-0.2078,-0.1873,-0.1873,-0.1696,-0.1695,-0.1695]},{"header":{"parameterUnit":"m.s-1","parameterCategory":2,"la1":30.2991,"la2":30.254,"lo1":-89.0895,"lo2":-89.0444,"dy":0.0017,"dx":0.0017,"nx":28,"ny":28,"refTime":"2025-04-01T21:00:00:Z","depth":"0","parameterNumber":3,"parameterNumberName":"V-component_of_CURRENTS"},"data":[0,0,0,0,0,0,0,0,0,0,0,0,0,0,0,0,0,0,0,0,0,0,0,0,0,0,0,0,0,0,0,0,0,0,0,0,0,0,0,0,0,0,0,0,0,0,0,0,0,0,0,0,0,0,0,0,0,0,-0.0222,-0.0221,0,-0.012,-0.0119,-0.0117,-0.0053,-0.0052,-0.0052,-0.0052,0.0084,0.0087,0.0091,0,0,0,0,0,0,0,0,0,0,0,0,0,-0.0288,-0.0287,-0.0222,-0.0221,-0.022,-0.012,-0.0119,-0.0117,-0.0053,-0.0052,-0.0052,-0.0052,0.0083,0.0087,0.0091,0,0,0,0,0,0,0,0,0,0,0,0,0,-0.0229,-0.0287,-0.0222,-0.0177,-0.0172,-0.0121,-0.0119,-0.0117,-0.0053,-0.0052,-0.0052,-0.0052,0.0082,0.0087,0.0092,0.0115,0,0,0.0107,0.0109,0,0,0,0,0,0,0,0,-0.0232,-0.0226,-0.0185,-0.018,-0.0174,-0.01,-0.0092,-0.0038,-0.0053,-0.0096,-0.0052,-0.0051,0.0024,0.0034,0.0054,0.0122,0.0128,0.0107,0.0111,0.0113,0.0114,0,0,0,0,0,0,0,-0.0236,-0.023,-0.018,-0.0183,-0.0177,-0.0136,-0.0128,-0.0081,-0.0038,-0.0092,-0.0088,-0.0079,0.0028,0.0049,0.0058,0.013,0.0107,0.0112,0.0115,0.0117,0.0251,0.0252,0,0,0,0,0,0,-0.0256,-0.0234,-0.0184,-0.0177,-0.0204,-0.0136,-0.0126,-0.0123,-0.0039,-0.0026,-0.0079,-0.0076,0.004,0.0052,0.0063,0.0112,0.0113,0.0117,0.012,0.0251,0.0251,0.0252,0,0,0,0,0,0,-0.0258,-0.0253,-0.0188,-0.0204,-0.0193,-0.0136,-0.0132,-0.0121,-0.01,-0.0029,-0.0016,-0.007,0.0041,0.0056,0.0108,0.0117,0.012,0.0124,0.025,0.0251,0.0252,0.0199,0,0,0,0,0,0,-0.0261,-0.0254,-0.026,-0.0206,-0.0193,-0.0165,-0.0132,-0.0119,-0.0096,-0.0091,-0.0017,-0.0004,0.0042,0.01,0.0113,0.0124,0.0128,0.0249,0.025,0.0251,0.02,0.0198,0.0196,0,0,0,0,0,-0.0263,-0.0276,-0.0261,-0.0255,-0.0203,-0.0166,-0.0155,-0.0111,-0.0096,-0.0091,-0.0035,-0.0006,0.0116,0.0105,0.012,0.0132,0.0249,0.025,0.0251,0.0201,0.0199,0.0196,0,0,0,0,0,0,-0.0307,-0.0269,-0.0252,-0.0252,-0.0215,-0.0155,-0.0149,-0.0118,-0.007,-0.0066,0.0001,0.0019,0.0067,0.0106,0.0092,0.0174,0.0187,0.0191,0.0144,0.0142,0.014,0.0126,0.0133,0,0,0,0,0,-0.0321,-0.0321,-0.0273,-0.0274,-0.026,-0.0206,-0.0186,-0.0157,-0.0107,-0.0086,-0.0033,0.0027,0.0084,0.0116,0.0166,0.0211,0.0255,0.023,0.0227,0.0225,0.0225,0.0306,0.0312,0.0256,0.0256,0.0256,0,0,-0.0338,-0.0318,-0.0317,-0.0283,-0.0252,-0.0236,-0.0193,-0.017,-0.0149,-0.0079,-0.0038,0.0018,0.0092,0.0144,0.0169,0.0179,0.0261,0.0227,0.0224,0.0226,0.0308,0.0314,0.0319,0.0257,0.0256,0.0256,0,0,-0.0376,-0.0355,-0.0369,-0.0342,-0.0305,-0.0265,-0.0263,-0.0206,-0.0174,-0.0128,-0.0069,-0.0006,0.007,0.0135,0.0176,0.0194,0.0243,0.0205,0.0191,0.027,0.0275,0.028,0.0326,0.0336,0.021,0.0209,0.0209,0,-0.0399,-0.0407,-0.0365,-0.0368,-0.0351,-0.0284,-0.0287,-0.024,-0.0172,-0.0138,-0.0125,0.0013,0.007,0.0156,0.0162,0.019,0.0229,0.0192,0.0267,0.0273,0.0279,0.0325,0.0336,0.0207,0.0207,0.0208,0.0208,0,-0.0443,-0.0446,-0.0451,-0.0431,-0.0404,-0.0396,-0.033,-0.0294,-0.0247,-0.019,-0.0107,-0.0018,0.0064,0.0096,0.0135,0.0212,0.0221,0.0248,0.0268,0.0281,0.0329,0.0342,0.0204,0.0204,0.0205,0.0206,0,0,-0.0503,-0.0488,-0.049,-0.0492,-0.0438,-0.0422,-0.038,-0.0315,-0.0281,-0.02,-0.0144,-0.0034,0.0018,0.0068,0.0135,0.021,0.0282,0.024,0.0245,0.0276,0.0433,0.0465,0.0483,0.0321,0.0323,0.0325,0.0442,0,-0.0551,-0.0585,-0.0549,-0.0559,-0.0568,-0.0489,-0.0454,-0.0382,-0.0306,-0.0234,-0.0116,-0.0043,0.0008,0.0048,0.0131,0.0246,0.0316,0.0246,0.0424,0.0429,0.045,0.05,0.0549,0.0661,0.0455,0.0457,0.0459,0,-0.0605,-0.0621,-0.0655,-0.0628,-0.0621,-0.0608,-0.0534,-0.0491,-0.0362,-0.0301,-0.0195,-0.0103,0.0023,0.0058,0.0261,0.0212,0.0311,0.04,0.0408,0.0467,0.0487,0.062,0.0692,0.0862,0.0479,0.0477,0.0476,0,-0.0682,-0.0687,-0.072,-0.0714,-0.0673,-0.0661,-0.0625,-0.0517,-0.0473,-0.0341,-0.0292,-0.013,-0.0045,0.0106,0.0288,0.0276,0.0508,0.0517,0.0641,0.0642,0.0736,0.0743,0.099,0.0659,0.0659,0.0658,0.0658,0,-0.0751,-0.0772,-0.0764,-0.0784,-0.0804,-0.074,-0.0723,-0.0657,-0.0552,-0.0491,-0.0341,-0.0254,-0.0026,0.0138,0.0284,0.0506,0.0509,0.0651,0.0689,0.0717,0.072,0.0912,0.0959,0.0663,0.0662,0.0661,0.066,0,-0.083,-0.0826,-0.0864,-0.0851,-0.0848,-0.0863,-0.081,-0.0784,-0.0677,-0.0593,-0.0554,-0.0333,-0.0112,0.0112,0.0378,0.0506,0.0814,0.078,0.078,0.0817,0.1073,0.1112,0.1361,0.1452,0.0932,0.0934,0.0935,0,-0.0875,-0.0908,-0.0935,-0.0964,-0.0964,-0.097,-0.0965,-0.0867,-0.0825,-0.0635,-0.0597,-0.0358,-0.0164,0.023,0.0509,0.0789,0.0908,0.0981,0.0978,0.1115,0.1188,0.1207,0.1266,0.1075,0.1077,0.1079,0.1081,0,-0.0954,-0.0965,-0.1,-0.1071,-0.1093,-0.11,-0.1079,-0.1066,-0.0926,-0.0816,-0.0628,-0.0454,-0.0047,0.0327,0.0693,0.0859,0.1105,0.103,0.1202,0.135,0.1361,0.1456,0.0939,0.1099,0.1097,0.1096,0.1095,0.1094,-0.1004,-0.1056,-0.1107,-0.1166,-0.1196,-0.121,-0.1206,-0.1144,-0.1055,-0.085,-0.0673,-0.0346,0.0179,0.0722,0.0909,0.1329,0.1266,0.1458,0.15,0.1511,0.1597,0.1096,0.1278,0.1278,0.1277,0.1276,0.1276,0,-0.1064,-0.1117,-0.1191,-0.1255,-0.13,-0.1284,-0.1257,-0.1198,-0.1086,-0.0844,-0.061,0.003,0.0543,0.1009,0.1584,0.18,0.1839,0.1906,0.1972,0.2013,0.162,0.1626,0.1857,0.1857,0.1857,0.1857,0.1856,0.1856,-0.1096,-0.1185,-0.1226,-0.1321,-0.1357,-0.1364,-0.1341,-0.1211,-0.1022,-0.0598,-0.0204,0.0112,0.0774,0.1682,0.2211,0.2253,0.2427,0.2402,0.2485,0.2237,0.2199,0.2163,0.2185,0.253,0.253,0.2883,0.2886,0.2889]}],[{"header":{"parameterUnit":"m.s-1","parameterCategory":2,"la1":30.2991,"la2":30.254,"lo1":-89.0895,"lo2":-89.0444,"dy":0.0017,"dx":0.0017,"nx":28,"ny":28,"refTime":"2025-04-01T21:00:00:Z","depth":"2","parameterNumber":2,"parameterNumberName":"U-component_of_CURRENTS"},"data":[0,0,0,0,0,0,0,0,0,0,0,0,0,0,0,0,0,0,0,0,0,0,0,0,0,0,0,0,0,0,0,0,0,0,0,0,0,0,0,0,0,0,0,0,0,0,0,0,0,0,0,0,0,0,0,0,0,0,-0.253,-0.2531,0,-0.2563,-0.2563,-0.2564,-0.2538,-0.2537,-0.2536,-0.2535,-0.2502,-0.2501,-0.2501,0,0,0,0,0,0,0,0,0,0,0,0,0,-0.2449,-0.245,-0.253,-0.2531,-0.2531,-0.2563,-0.2563,-0.2564,-0.2538,-0.2537,-0.2536,-0.2535,-0.2502,-0.2501,-0.2501,0,0,0,0,0,0,0,0,0,0,0,0,0,-0.2481,-0.2451,-0.253,-0.2524,-0.2524,-0.2563,-0.2563,-0.2564,-0.2538,-0.2537,-0.2535,-0.2534,-0.2502,-0.2501,-0.2501,-0.2527,0,0,-0.2501,-0.2501,0,0,0,0,0,0,0,0,-0.2479,-0.2484,-0.2524,-0.2525,-0.2525,-0.2547,-0.2523,-0.2549,-0.2538,-0.253,-0.2535,-0.2534,-0.2513,-0.2512,-0.2519,-0.2526,-0.2524,-0.2501,-0.2501,-0.2501,-0.2501,0,0,0,0,0,0,0,-0.2477,-0.2482,-0.2541,-0.2525,-0.2526,-0.2522,-0.2524,-0.2528,-0.2526,-0.2531,-0.253,-0.2538,-0.2512,-0.2519,-0.2518,-0.2524,-0.2501,-0.2501,-0.2501,-0.2501,-0.2571,-0.2573,0,0,0,0,0,0,-0.248,-0.248,-0.254,-0.2542,-0.2501,-0.2524,-0.2527,-0.2539,-0.2527,-0.2525,-0.2539,-0.2536,-0.252,-0.2518,-0.2516,-0.2565,-0.2501,-0.2501,-0.2501,-0.2569,-0.2572,-0.2574,0,0,0,0,0,0,-0.2478,-0.2485,-0.2538,-0.2513,-0.252,-0.2527,-0.2541,-0.2541,-0.2544,-0.2534,-0.253,-0.2542,-0.2519,-0.2516,-0.2529,-0.2562,-0.2501,-0.2501,-0.2567,-0.257,-0.2573,-0.265,0,0,0,0,0,0,-0.2475,-0.2484,-0.2489,-0.2514,-0.2522,-0.2569,-0.2542,-0.2542,-0.2552,-0.2549,-0.2536,-0.2532,-0.2517,-0.253,-0.2529,-0.2561,-0.2501,-0.2565,-0.2568,-0.2572,-0.2645,-0.2655,-0.2663,0,0,0,0,0,-0.2472,-0.2491,-0.2489,-0.2496,-0.253,-0.257,-0.2574,-0.2572,-0.2554,-0.2567,-0.2559,-0.2532,-0.2553,-0.2532,-0.253,-0.2563,-0.2563,-0.2567,-0.2572,-0.264,-0.2653,-0.2663,0,0,0,0,0,0,-0.2455,-0.2491,-0.249,-0.2516,-0.2543,-0.2566,-0.2577,-0.2577,-0.2582,-0.2574,-0.2554,-0.2551,-0.2576,-0.2562,-0.2539,-0.2596,-0.2555,-0.2559,-0.2608,-0.2619,-0.2628,-0.262,-0.2501,0,0,0,0,0,-0.2457,-0.2476,-0.2511,-0.253,-0.2545,-0.256,-0.2573,-0.2579,-0.259,-0.259,-0.2585,-0.2583,-0.2597,-0.2599,-0.2606,-0.2634,-0.2595,-0.2656,-0.2666,-0.2673,-0.2668,-0.2643,-0.2649,-0.2588,-0.2588,-0.2588,0,0,-0.2453,-0.2475,-0.2484,-0.2527,-0.2543,-0.2584,-0.2564,-0.2593,-0.2624,-0.2587,-0.2617,-0.2614,-0.2612,-0.2647,-0.2658,-0.2636,-0.2672,-0.2679,-0.2686,-0.2675,-0.2648,-0.2654,-0.2659,-0.2591,-0.2591,-0.259,0,0,-0.2468,-0.2479,-0.2506,-0.2539,-0.2576,-0.2596,-0.2607,-0.2639,-0.2647,-0.2684,-0.2668,-0.2682,-0.2702,-0.2709,-0.2715,-0.278,-0.2723,-0.2788,-0.2827,-0.2805,-0.2809,-0.2812,-0.2771,-0.2769,-0.2793,-0.2793,-0.2793,0,-0.2461,-0.2502,-0.252,-0.2564,-0.2591,-0.2605,-0.2648,-0.2673,-0.2704,-0.2713,-0.2702,-0.2733,-0.2733,-0.277,-0.28,-0.28,-0.2767,-0.2783,-0.2815,-0.2817,-0.2819,-0.2775,-0.2773,-0.2797,-0.2797,-0.2796,-0.2796,0,-0.2505,-0.2541,-0.2562,-0.2621,-0.2654,-0.2692,-0.2736,-0.2763,-0.2772,-0.2789,-0.282,-0.2823,-0.2833,-0.2852,-0.2849,-0.2876,-0.2841,-0.2827,-0.278,-0.2829,-0.2781,-0.2777,-0.2803,-0.2802,-0.28,-0.2799,0,0,-0.2476,-0.2573,-0.2578,-0.2611,-0.2686,-0.2713,-0.2777,-0.2827,-0.2846,-0.2878,-0.2896,-0.2941,-0.2922,-0.2928,-0.2924,-0.2917,-0.2913,-0.2884,-0.2881,-0.2833,-0.2844,-0.2781,-0.2769,-0.29,-0.29,-0.29,-0.2806,0,-0.2499,-0.258,-0.2629,-0.2699,-0.2741,-0.2786,-0.2838,-0.2883,-0.2907,-0.293,-0.2939,-0.2956,-0.2959,-0.2957,-0.2958,-0.2921,-0.2906,-0.2938,-0.2813,-0.2809,-0.2738,-0.2764,-0.2578,-0.2475,-0.2801,-0.28,-0.28,0,-0.252,-0.2571,-0.2646,-0.2729,-0.2749,-0.2796,-0.2854,-0.2905,-0.2951,-0.2966,-0.2986,-0.2983,-0.2996,-0.2979,-0.2937,-0.2955,-0.2908,-0.2875,-0.287,-0.2776,-0.2738,-0.248,-0.2454,-0.2792,-0.2793,-0.2793,-0.2794,0,-0.247,-0.2575,-0.2627,-0.2661,-0.2764,-0.2796,-0.2843,-0.2904,-0.2934,-0.2977,-0.2985,-0.2998,-0.2986,-0.295,-0.2901,-0.2913,-0.2827,-0.2828,-0.2723,-0.2717,-0.2515,-0.2491,-0.2783,-0.2783,-0.2783,-0.2784,-0.2784,0,-0.2468,-0.2505,-0.2605,-0.2633,-0.2678,-0.2764,-0.2806,-0.2856,-0.2915,-0.2931,-0.2986,-0.2981,-0.2976,-0.2935,-0.2892,-0.2788,-0.2814,-0.2722,-0.269,-0.2538,-0.2519,-0.2762,-0.2761,-0.278,-0.2781,-0.2782,-0.2782,0,-0.2399,-0.2476,-0.2529,-0.263,-0.2658,-0.2682,-0.2774,-0.2797,-0.2873,-0.2893,-0.2905,-0.2952,-0.2901,-0.2876,-0.2801,-0.2755,-0.2675,-0.2628,-0.2447,-0.2396,-0.2581,-0.2585,-0.2501,-0.2498,-0.2496,-0.2493,-0.2492,0,-0.237,-0.2393,-0.2488,-0.2507,-0.255,-0.2607,-0.2639,-0.2749,-0.2776,-0.2857,-0.2848,-0.2843,-0.28,-0.2689,-0.2598,-0.2491,-0.2579,-0.2274,-0.2277,-0.2576,-0.2553,-0.2561,-0.2569,-0.2032,-0.2027,-0.2023,-0.2019,0,-0.2291,-0.2323,-0.236,-0.2402,-0.244,-0.2482,-0.2542,-0.256,-0.2672,-0.2698,-0.2705,-0.2684,-0.2604,-0.2419,-0.2313,-0.2231,-0.2285,-0.2183,-0.2512,-0.2153,-0.2132,-0.2111,-0.2133,-0.198,-0.1984,-0.1986,-0.1989,-0.199,-0.2202,-0.2198,-0.2242,-0.2266,-0.2307,-0.2321,-0.2305,-0.2374,-0.2393,-0.2381,-0.2479,-0.2375,-0.2345,-0.2077,-0.1967,-0.188,-0.2033,-0.1949,-0.1963,-0.1981,-0.1964,-0.1942,-0.1749,-0.1751,-0.1754,-0.1755,-0.1757,0,-0.2072,-0.2085,-0.2102,-0.2123,-0.2098,-0.2176,-0.2202,-0.2142,-0.2099,-0.2121,-0.2099,-0.1862,-0.176,-0.1732,-0.1543,-0.1516,-0.1499,-0.1457,-0.144,-0.1479,-0.1514,-0.1475,-0.1129,-0.1127,-0.1125,-0.1124,0,0,-0.2006,-0.1968,-0.1978,-0.1896,-0.1907,-0.182,-0.1796,-0.1727,-0.1697,-0.157,-0.1517,-0.1639,-0.1673,-0.1394,-0.1338,-0.1205,-0.1324,-0.1142,-0.1645,-0.1662,-0.1695,-0.1795,-0.1778,0,0,0,0,0]},{"header":{"parameterUnit":"m.s-1","parameterCategory":2,"la1":30.2991,"la2":30.254,"lo1":-89.0895,"lo2":-89.0444,"dy":0.0017,"dx":0.0017,"nx":28,"ny":28,"refTime":"2025-04-01T21:00:00:Z","depth":"2","parameterNumber":3,"parameterNumberName":"V-component_of_CURRENTS"},"data":[0,0,0,0,0,0,0,0,0,0,0,0,0,0,0,0,0,0,0,0,0,0,0,0,0,0,0,0,0,0,0,0,0,0,0,0,0,0,0,0,0,0,0,0,0,0,0,0,0,0,0,0,0,0,0,0,0,0,-0.0269,-0.0268,0,-0.0172,-0.0171,-0.017,-0.0105,-0.0105,-0.0105,-0.0104,0.0026,0.0029,0.0032,0,0,0,0,0,0,0,0,0,0,0,0,0,-0.0331,-0.0331,-0.0269,-0.0268,-0.0267,-0.0172,-0.0171,-0.0169,-0.0105,-0.0105,-0.0105,-0.0104,0.0025,0.0029,0.0033,0,0,0,0,0,0,0,0,0,0,0,0,0,-0.0275,-0.033,-0.0269,-0.0224,-0.0219,-0.0173,-0.0171,-0.0169,-0.0106,-0.0105,-0.0105,-0.0104,0.0024,0.0029,0.0033,0.0053,0,0,0.0048,0.005,0,0,0,0,0,0,0,0,-0.0279,-0.0273,-0.0232,-0.0227,-0.0222,-0.0151,-0.0145,-0.0093,-0.0106,-0.0147,-0.0104,-0.0104,-0.0031,-0.0022,-0.0003,0.0059,0.0065,0.0048,0.0051,0.0053,0.0055,0,0,0,0,0,0,0,-0.0283,-0.0276,-0.0229,-0.0231,-0.0225,-0.0186,-0.0178,-0.0134,-0.0092,-0.0144,-0.0139,-0.0131,-0.0028,-0.0008,0.0,0.0067,0.0048,0.0052,0.0055,0.0057,0.0175,0.0175,0,0,0,0,0,0,-0.0301,-0.028,-0.0232,-0.0226,-0.0251,-0.0186,-0.0177,-0.0173,-0.0093,-0.008,-0.0131,-0.0128,-0.0017,-0.0005,0.0005,0.0045,0.0053,0.0058,0.006,0.0175,0.0175,0.0176,0,0,0,0,0,0,-0.0303,-0.0298,-0.0236,-0.0252,-0.0241,-0.0186,-0.0182,-0.0172,-0.0152,-0.0084,-0.007,-0.0122,-0.0016,-0.0002,0.0046,0.005,0.006,0.0064,0.0175,0.0175,0.0175,0.0117,0,0,0,0,0,0,-0.0305,-0.0299,-0.0305,-0.0253,-0.0241,-0.0217,-0.0182,-0.017,-0.0148,-0.0143,-0.0072,-0.0059,-0.0014,0.0038,0.005,0.0057,0.0068,0.0174,0.0175,0.0175,0.0119,0.0116,0.0113,0,0,0,0,0,-0.0308,-0.0321,-0.0306,-0.03,-0.025,-0.0217,-0.0208,-0.0165,-0.0148,-0.0144,-0.0092,-0.0061,0.005,0.0042,0.0057,0.0064,0.0174,0.0175,0.0175,0.012,0.0116,0.0113,0,0,0,0,0,0,-0.035,-0.0314,-0.0297,-0.0298,-0.0264,-0.0207,-0.0202,-0.0172,-0.0127,-0.0122,-0.0057,-0.004,0.0001,0.004,0.003,0.01,0.0117,0.012,0.007,0.0067,0.0064,0.005,0.0072,0,0,0,0,0,-0.0364,-0.0365,-0.0319,-0.0321,-0.0308,-0.0256,-0.0238,-0.0209,-0.0163,-0.0143,-0.0092,-0.0036,0.0015,0.0045,0.0091,0.013,0.0175,0.0145,0.0142,0.0139,0.0138,0.0217,0.0221,0.0177,0.0177,0.0177,0,0,-0.038,-0.0361,-0.0361,-0.033,-0.03,-0.0289,-0.0244,-0.0224,-0.0207,-0.0136,-0.0101,-0.0048,0.0022,0.0065,0.0088,0.01,0.0172,0.014,0.0137,0.0137,0.0218,0.0222,0.0226,0.0178,0.0178,0.0178,0,0,-0.0419,-0.0398,-0.0413,-0.039,-0.0355,-0.0318,-0.0317,-0.0263,-0.0233,-0.0193,-0.0136,-0.0079,-0.0009,0.0049,0.0087,0.0096,0.0149,0.0106,0.0088,0.0164,0.0168,0.0172,0.022,0.0229,0.011,0.011,0.011,0,-0.0441,-0.0452,-0.0411,-0.0417,-0.0403,-0.0337,-0.0344,-0.0302,-0.0239,-0.0208,-0.0193,-0.0068,-0.0014,0.006,0.0063,0.009,0.0131,0.0093,0.0159,0.0165,0.017,0.0219,0.0229,0.0107,0.0108,0.0108,0.0108,0,-0.0489,-0.0494,-0.05,-0.0485,-0.0461,-0.0457,-0.0397,-0.0365,-0.032,-0.0268,-0.0193,-0.0111,-0.0034,-0.0007,0.0032,0.0099,0.0114,0.0141,0.0165,0.0171,0.0222,0.0234,0.0104,0.0105,0.0105,0.0106,0,0,-0.0547,-0.0538,-0.054,-0.0545,-0.0498,-0.0485,-0.0452,-0.0396,-0.0366,-0.0291,-0.0241,-0.0145,-0.009,-0.0044,0.002,0.0089,0.0158,0.0124,0.0129,0.0164,0.0308,0.0339,0.0355,0.0198,0.02,0.0202,0.0322,0,-0.0597,-0.0636,-0.0605,-0.0621,-0.0633,-0.056,-0.0533,-0.0469,-0.0398,-0.0332,-0.0223,-0.0155,-0.0106,-0.0067,0.0011,0.0124,0.019,0.0121,0.0304,0.0309,0.033,0.0371,0.0314,0.042,0.0335,0.0337,0.0338,0,-0.0654,-0.0672,-0.0712,-0.0692,-0.0688,-0.0679,-0.0614,-0.0579,-0.046,-0.0403,-0.0304,-0.0215,-0.0099,-0.0063,0.0134,0.0087,0.0186,0.0273,0.028,0.0339,0.0363,0.0405,0.0446,0.036,0.0358,0.0356,0.0355,0,-0.0728,-0.074,-0.0777,-0.0773,-0.0741,-0.0733,-0.0702,-0.0604,-0.0565,-0.0443,-0.0395,-0.0244,-0.016,-0.0014,0.0165,0.0153,0.0379,0.0388,0.0508,0.051,0.0514,0.0514,0.0524,0.0523,0.0523,0.0523,0.0522,0,-0.0797,-0.0821,-0.0818,-0.084,-0.0864,-0.0807,-0.0796,-0.0735,-0.0639,-0.0583,-0.0441,-0.0358,-0.0141,0.0018,0.0162,0.0378,0.0382,0.0516,0.0556,0.0491,0.0487,0.0477,0.047,0.0527,0.0526,0.0525,0.0525,0,-0.0873,-0.0873,-0.0914,-0.0907,-0.0906,-0.0923,-0.0877,-0.0854,-0.0754,-0.0675,-0.0639,-0.0429,-0.0213,0.0001,0.0258,0.0382,0.0576,0.0647,0.0544,0.057,0.0649,0.0638,0.079,0.0793,0.0795,0.0796,0.0798,0,-0.0917,-0.0951,-0.0981,-0.1011,-0.1013,-0.1022,-0.102,-0.0931,-0.0892,-0.0711,-0.0675,-0.0446,-0.0262,0.0121,0.0373,0.064,0.0643,0.0736,0.0712,0.0659,0.0683,0.0668,0.0654,0.0686,0.0686,0.0686,0.0687,0,-0.0994,-0.1005,-0.104,-0.1111,-0.1134,-0.1144,-0.1127,-0.1116,-0.0985,-0.0881,-0.07,-0.0536,-0.0159,0.0144,0.0488,0.0632,0.0688,0.0752,0.0754,0.0625,0.0571,0.059,0.0578,0.0689,0.0689,0.0689,0.0689,0.0689,-0.1041,-0.1091,-0.1141,-0.12,-0.1231,-0.1247,-0.1245,-0.1186,-0.1103,-0.0912,-0.0747,-0.0462,-0.0176,0.0322,0.0547,0.0755,0.0766,0.0807,0.0802,0.0797,0.0762,0.0715,0.0852,0.0852,0.0853,0.0853,0.0854,0,-0.1097,-0.1149,-0.1221,-0.1284,-0.1327,-0.1315,-0.1293,-0.1239,-0.1131,-0.0924,-0.0708,-0.0367,-0.0018,0.0276,0.0607,0.0809,0.0777,0.0828,0.0739,0.0736,0.0734,0.0691,0.0764,0.0765,0.0765,0.0765,0,0,-0.1127,-0.1213,-0.1252,-0.1343,-0.1381,-0.139,-0.1369,-0.1252,-0.1093,-0.087,-0.065,-0.0357,0.0001,0.0211,0.0453,0.0619,0.0621,0.0627,0.0678,0.054,0.0535,0.0702,0.0631,0,0,0,0,0]}],[{"header":{"parameterUnit":"m.s-1","parameterCategory":2,"la1":30.2991,"la2":30.254,"lo1":-89.0895,"lo2":-89.0444,"dy":0.0017,"dx":0.0017,"nx":28,"ny":28,"refTime":"2025-04-01T21:00:00:Z","depth":"4","parameterNumber":2,"parameterNumberName":"U-component_of_CURRENTS"},"data":[0,0,0,0,0,0,0,0,0,0,0,0,0,0,0,0,0,0,0,0,0,0,0,0,0,0,0,0,0,0,0,0,0,0,0,0,0,0,0,0,0,0,0,0,0,0,0,0,0,0,0,0,0,0,0,0,0,0,-0.1715,-0.1716,0,-0.1777,-0.1778,-0.1778,-0.1815,-0.1815,-0.1815,-0.1815,-0.1854,-0.1855,-0.1855,0,0,0,0,0,0,0,0,0,0,0,0,0,-0.1625,-0.1626,-0.1715,-0.1716,-0.1717,-0.1777,-0.1778,-0.1779,-0.1814,-0.1815,-0.1815,-0.1816,-0.1854,-0.1855,-0.1855,0,0,0,0,0,0,0,0,0,0,0,0,0,-0.1671,-0.1627,-0.1715,-0.1743,-0.1746,-0.1777,-0.1778,-0.1779,-0.1814,-0.1815,-0.1815,-0.1816,-0.1853,-0.1854,-0.1856,-0.1853,0,0,-0.1859,-0.1859,0,0,0,0,0,0,0,0,-0.1669,-0.1674,-0.1738,-0.1741,-0.1745,-0.179,-0.176,-0.1803,-0.1814,-0.1787,-0.1815,-0.1816,-0.1831,-0.1834,-0.1843,-0.1855,-0.1857,-0.1859,-0.186,-0.186,-0.186,0,0,0,0,0,0,0,-0.1665,-0.1672,-0.1738,-0.1739,-0.1743,-0.1752,-0.1759,-0.1769,-0.1804,-0.1789,-0.1792,-0.1802,-0.1833,-0.1842,-0.1844,-0.1857,-0.1859,-0.186,-0.1861,-0.1861,-0.195,-0.1951,0,0,0,0,0,0,-0.1661,-0.1669,-0.1736,-0.174,-0.1709,-0.1754,-0.1762,-0.1774,-0.1804,-0.181,-0.1802,-0.1804,-0.1839,-0.1842,-0.1845,-0.192,-0.186,-0.1861,-0.1862,-0.1948,-0.195,-0.1952,0,0,0,0,0,0,-0.1659,-0.1667,-0.1733,-0.1707,-0.1716,-0.1755,-0.1768,-0.1775,-0.1812,-0.1814,-0.1819,-0.1836,-0.184,-0.1844,-0.1884,-0.1919,-0.1862,-0.1863,-0.1946,-0.1949,-0.1951,-0.2022,0,0,0,0,0,0,-0.1656,-0.1665,-0.1685,-0.1707,-0.1718,-0.1772,-0.1768,-0.1776,-0.1816,-0.182,-0.1845,-0.1847,-0.1841,-0.1883,-0.1885,-0.192,-0.1864,-0.1944,-0.1947,-0.195,-0.2017,-0.2026,-0.2034,0,0,0,0,0,-0.1653,-0.1675,-0.1686,-0.1695,-0.174,-0.1774,-0.1781,-0.1808,-0.1818,-0.1841,-0.1862,-0.1848,-0.1904,-0.1885,-0.1888,-0.1923,-0.1942,-0.1946,-0.195,-0.2013,-0.2025,-0.2034,0,0,0,0,0,0,-0.1648,-0.1682,-0.1694,-0.1727,-0.1758,-0.1781,-0.1809,-0.1825,-0.186,-0.1871,-0.1869,-0.1874,-0.1922,-0.1914,-0.1892,-0.1959,-0.1921,-0.1926,-0.1969,-0.1979,-0.1987,-0.1977,-0.1865,0,0,0,0,0,-0.1655,-0.1682,-0.1713,-0.1742,-0.176,-0.179,-0.1812,-0.1833,-0.186,-0.1877,-0.1896,-0.1916,-0.1934,-0.1951,-0.1965,-0.2001,-0.1971,-0.2026,-0.2034,-0.2042,-0.2036,-0.2021,-0.2027,-0.1965,-0.1965,-0.1964,0,0,-0.1661,-0.1684,-0.17,-0.1743,-0.1769,-0.1805,-0.1805,-0.185,-0.1885,-0.1874,-0.1936,-0.1948,-0.1951,-0.1994,-0.2015,-0.1996,-0.2047,-0.2046,-0.2053,-0.2043,-0.2026,-0.2031,-0.2037,-0.1967,-0.1967,-0.1966,0,0,-0.1678,-0.1709,-0.1735,-0.1767,-0.1815,-0.1835,-0.1855,-0.1899,-0.1928,-0.1982,-0.1983,-0.2015,-0.2054,-0.2059,-0.2065,-0.2127,-0.2092,-0.2143,-0.2179,-0.2166,-0.217,-0.2174,-0.2152,-0.2153,-0.2148,-0.2148,-0.2148,0,-0.1687,-0.1721,-0.175,-0.1786,-0.1815,-0.1852,-0.1889,-0.1925,-0.198,-0.2,-0.2014,-0.2069,-0.208,-0.211,-0.2142,-0.2145,-0.2129,-0.214,-0.2175,-0.2178,-0.218,-0.2157,-0.2157,-0.2152,-0.2152,-0.2151,-0.2151,0,-0.1714,-0.1757,-0.1778,-0.1832,-0.187,-0.191,-0.1959,-0.2005,-0.2045,-0.2071,-0.2126,-0.2144,-0.2169,-0.2188,-0.219,-0.222,-0.2201,-0.2185,-0.2145,-0.219,-0.2163,-0.2162,-0.2157,-0.2156,-0.2155,-0.2154,0,0,-0.1688,-0.1779,-0.1789,-0.1822,-0.1899,-0.1926,-0.1995,-0.2049,-0.2084,-0.2144,-0.2179,-0.2231,-0.2239,-0.2246,-0.2252,-0.2253,-0.2269,-0.2239,-0.2237,-0.2209,-0.2238,-0.2102,-0.2087,-0.2263,-0.2263,-0.2263,-0.2215,0,-0.17,-0.1766,-0.1813,-0.1882,-0.1917,-0.1978,-0.2033,-0.209,-0.2139,-0.2185,-0.221,-0.225,-0.2261,-0.2283,-0.2288,-0.2274,-0.2268,-0.2283,-0.2204,-0.2202,-0.2068,-0.2082,-0.2263,-0.2214,-0.2213,-0.2213,-0.2213,0,-0.1699,-0.1746,-0.1815,-0.19,-0.1922,-0.1975,-0.2054,-0.211,-0.2178,-0.2216,-0.2257,-0.2277,-0.2307,-0.2303,-0.2293,-0.2306,-0.2281,-0.2262,-0.2259,-0.21,-0.2062,-0.2157,-0.221,-0.221,-0.221,-0.221,-0.2211,0,-0.1639,-0.1739,-0.1792,-0.1825,-0.1932,-0.1979,-0.2038,-0.2119,-0.2161,-0.2235,-0.2264,-0.2298,-0.2316,-0.23,-0.2283,-0.2294,-0.2245,-0.2246,-0.2093,-0.2083,-0.2189,-0.2186,-0.2219,-0.2219,-0.2219,-0.2219,-0.2219,0,-0.1608,-0.1652,-0.1777,-0.1803,-0.1865,-0.1956,-0.2023,-0.2085,-0.2169,-0.2197,-0.2276,-0.2284,-0.2319,-0.2301,-0.2278,-0.2171,-0.2238,-0.2087,-0.2056,-0.2223,-0.2224,-0.2188,-0.2186,-0.2217,-0.2217,-0.2218,-0.2218,0,-0.1522,-0.161,-0.1674,-0.1798,-0.1839,-0.1883,-0.2008,-0.2044,-0.2145,-0.2183,-0.2209,-0.2276,-0.225,-0.2252,-0.2213,-0.2142,-0.2068,-0.2012,-0.2185,-0.2167,-0.192,-0.1922,-0.1833,-0.1827,-0.1823,-0.1819,-0.1816,0,-0.1479,-0.1507,-0.1644,-0.1681,-0.1743,-0.183,-0.1881,-0.201,-0.2043,-0.215,-0.2142,-0.2171,-0.219,-0.2017,-0.2046,-0.1965,-0.1943,-0.1896,-0.1914,-0.1898,-0.1878,-0.1887,-0.1894,-0.1808,-0.1807,-0.1806,-0.1805,0,-0.1383,-0.145,-0.15,-0.1579,-0.1648,-0.1709,-0.1794,-0.1803,-0.1931,-0.2045,-0.2011,-0.1987,-0.1947,-0.1909,-0.1853,-0.1803,-0.1924,-0.1848,-0.1858,-0.1874,-0.1868,-0.1854,-0.1867,-0.1789,-0.1792,-0.1793,-0.1794,0,-0.1307,-0.1318,-0.1396,-0.1446,-0.1527,-0.1549,-0.162,-0.1655,-0.1706,-0.1836,-0.1815,-0.185,-0.1919,-0.1822,-0.1774,-0.1709,-0.1688,-0.1635,-0.1655,-0.1673,-0.1642,-0.1613,-0.1413,0,0,0,0,0,-0.1216,-0.1211,-0.1252,-0.1302,-0.1378,-0.1422,-0.1535,-0.1612,-0.1737,-0.1663,-0.1736,-0.1694,-0.1634,-0.1658,-0.1552,-0.1694,-0.1689,-0.1566,-0.1639,-0.1702,-0.172,-0.1699,0,0,0,0,0,0,-0.1156,-0.1186,-0.1199,-0.1164,-0.1169,-0.1236,-0.1299,-0.1397,-0.137,-0.1503,-0.1473,-0.1581,-0.154,-0.165,-0.151,-0.1515,-0.1525,-0.1603,-0.1598,-0.1692,-0.1708,-0.1723,-0.1707,0,0,0,0,0]},{"header":{"parameterUnit":"m.s-1","parameterCategory":2,"la1":30.2991,"la2":30.254,"lo1":-89.0895,"lo2":-89.0444,"dy":0.0017,"dx":0.0017,"nx":28,"ny":28,"refTime":"2025-04-01T21:00:00:Z","depth":"4","parameterNumber":3,"parameterNumberName":"V-component_of_CURRENTS"},"data":[0,0,0,0,0,0,0,0,0,0,0,0,0,0,0,0,0,0,0,0,0,0,0,0,0,0,0,0,0,0,0,0,0,0,0,0,0,0,0,0,0,0,0,0,0,0,0,0,0,0,0,0,0,0,0,0,0,0,-0.0216,-0.0215,0,-0.0154,-0.0153,-0.0152,-0.0106,-0.0106,-0.0105,-0.0105,-0.0009,-0.0006,-0.0004,0,0,0,0,0,0,0,0,0,0,0,0,0,-0.0252,-0.0252,-0.0216,-0.0215,-0.0214,-0.0154,-0.0153,-0.0152,-0.0106,-0.0106,-0.0105,-0.0105,-0.0009,-0.0007,-0.0004,0,0,0,0,0,0,0,0,0,0,0,0,0,-0.0217,-0.0251,-0.0216,-0.0185,-0.0182,-0.0154,-0.0153,-0.0152,-0.0106,-0.0105,-0.0105,-0.0105,-0.001,-0.0007,-0.0003,0.0009,0,0,0.0007,0.0009,0,0,0,0,0,0,0,0,-0.0219,-0.0215,-0.019,-0.0187,-0.0183,-0.0138,-0.013,-0.0097,-0.0106,-0.0133,-0.0105,-0.0104,-0.005,-0.0043,-0.0031,0.0013,0.0018,0.0007,0.0009,0.0011,0.0012,0,0,0,0,0,0,0,-0.0221,-0.0217,-0.019,-0.019,-0.0185,-0.016,-0.0155,-0.0123,-0.0093,-0.0131,-0.0128,-0.0123,-0.0047,-0.0035,-0.0028,0.0019,0.0007,0.001,0.0012,0.0014,0.0078,0.0077,0,0,0,0,0,0,-0.0234,-0.022,-0.0192,-0.0188,-0.0202,-0.016,-0.0154,-0.0152,-0.0094,-0.0086,-0.0123,-0.0121,-0.0041,-0.0033,-0.0025,-0.0016,0.0011,0.0014,0.0016,0.0078,0.0078,0.0077,0,0,0,0,0,0,-0.0235,-0.0232,-0.0194,-0.0203,-0.0197,-0.016,-0.0158,-0.0151,-0.014,-0.0089,-0.0079,-0.012,-0.004,-0.003,-0.0002,-0.0011,0.0016,0.0019,0.0078,0.0078,0.0077,0.0009,0,0,0,0,0,0,-0.0237,-0.0233,-0.024,-0.0204,-0.0197,-0.0188,-0.0158,-0.015,-0.0138,-0.0135,-0.0083,-0.0074,-0.0039,-0.0007,0.0002,-0.0006,0.0021,0.0079,0.0078,0.0078,0.0012,0.0006,0.0001,0,0,0,0,0,-0.0238,-0.0251,-0.024,-0.0237,-0.0206,-0.0189,-0.0183,-0.0153,-0.0139,-0.0141,-0.0103,-0.0075,-0.0005,-0.0005,0.0006,-0.0001,0.0079,0.0078,0.0078,0.0014,0.0007,0.0001,0,0,0,0,0,0,-0.0268,-0.0247,-0.0234,-0.0239,-0.022,-0.0181,-0.0182,-0.016,-0.0132,-0.0128,-0.0078,-0.0066,-0.0046,-0.0014,-0.0015,0.0015,0.0041,0.0042,-0.0011,-0.0017,-0.0022,-0.0031,0.0024,0,0,0,0,0,-0.028,-0.0285,-0.0256,-0.0261,-0.0254,-0.0219,-0.0209,-0.019,-0.0159,-0.0147,-0.011,-0.0072,-0.0041,-0.0022,0.0009,0.0027,0.007,0.0029,0.0024,0.0019,0.0019,0.0076,0.0076,0.0074,0.0074,0.0074,0,0,-0.0292,-0.0282,-0.0284,-0.0268,-0.025,-0.0251,-0.0212,-0.0204,-0.0202,-0.0141,-0.0129,-0.009,-0.0041,-0.0022,-0.001,0.0004,0.0041,0.0018,0.0014,0.0016,0.0075,0.0075,0.0076,0.0074,0.0074,0.0074,0,0,-0.0326,-0.0312,-0.033,-0.032,-0.0302,-0.0279,-0.028,-0.0247,-0.0231,-0.0212,-0.0169,-0.0135,-0.0091,-0.0055,-0.0032,-0.0045,0.001,-0.0039,-0.0068,-0.0013,-0.0013,-0.0011,0.0038,0.0044,-0.0039,-0.0039,-0.0039,0,-0.0344,-0.036,-0.0332,-0.0346,-0.0343,-0.0297,-0.0313,-0.029,-0.0251,-0.0236,-0.022,-0.0143,-0.0106,-0.0071,-0.0077,-0.0057,-0.0017,-0.005,-0.002,-0.0018,-0.0015,0.0035,0.0043,-0.0042,-0.0042,-0.0042,-0.0041,0,-0.039,-0.0403,-0.0412,-0.0415,-0.0406,-0.0412,-0.0379,-0.0365,-0.0337,-0.0304,-0.0265,-0.0207,-0.0159,-0.0145,-0.0115,-0.0082,-0.0057,-0.0036,-0.0006,-0.0019,0.0035,0.0044,-0.0047,-0.0046,-0.0045,-0.0044,0,0,-0.043,-0.0444,-0.0449,-0.0461,-0.0444,-0.0441,-0.0437,-0.0413,-0.0401,-0.0356,-0.0331,-0.0278,-0.0234,-0.0204,-0.0157,-0.011,-0.0063,-0.0072,-0.0067,-0.0026,0.0059,0.0049,0.0059,-0.0034,-0.0033,-0.0032,0.0087,0,-0.0475,-0.0524,-0.0511,-0.0545,-0.0563,-0.0522,-0.0521,-0.0489,-0.0445,-0.0408,-0.0337,-0.0297,-0.026,-0.0233,-0.0182,-0.0086,-0.004,-0.0097,0.0069,0.0074,0.0065,0.0069,-0.0028,0.0095,0.0097,0.0099,0.01,0,-0.0524,-0.055,-0.0602,-0.061,-0.0613,-0.0624,-0.06,-0.0588,-0.052,-0.0482,-0.0421,-0.0356,-0.028,-0.0248,-0.0097,-0.0133,-0.005,0.0023,0.003,0.0053,0.0082,0.0114,0.0117,0.0116,0.0115,0.0113,0.0112,0,-0.057,-0.0607,-0.0652,-0.0658,-0.0663,-0.0674,-0.0667,-0.0616,-0.0598,-0.0524,-0.0488,-0.0389,-0.0327,-0.0214,-0.0067,-0.0078,0.0109,0.0114,0.0185,0.0186,0.0189,0.0187,0.0215,0.0215,0.0214,0.0214,0.0214,0,-0.0618,-0.0652,-0.0683,-0.0708,-0.0751,-0.0729,-0.0743,-0.0713,-0.0659,-0.0626,-0.0532,-0.0471,-0.0313,-0.0185,-0.0068,0.0092,0.0111,0.0183,0.0217,0.0156,0.0149,0.0196,0.0192,0.0219,0.0218,0.0217,0.0216,0,-0.0657,-0.0681,-0.0734,-0.0765,-0.0778,-0.0806,-0.0806,-0.0801,-0.0742,-0.0691,-0.0669,-0.0519,-0.0352,-0.0188,0.0016,0.0094,0.0244,0.0294,0.0222,0.0249,0.0282,0.0273,0.0375,0.0376,0.0376,0.0377,0.0377,0,-0.0681,-0.0717,-0.0783,-0.0821,-0.0842,-0.0877,-0.0894,-0.0854,-0.0831,-0.0711,-0.068,-0.0515,-0.0403,-0.0111,0.0045,0.0267,0.0291,0.0358,0.0308,0.0277,0.03,0.029,0.0281,0.0378,0.0378,0.0379,0.0379,0,-0.0718,-0.0748,-0.0791,-0.0876,-0.0919,-0.095,-0.0962,-0.0952,-0.0878,-0.0829,-0.0666,-0.0506,-0.0313,-0.0105,0.0074,0.0228,0.0306,0.0364,0.0363,0.0317,0.0282,0.0302,0.0292,0.0381,0.0381,0.038,0.038,0,-0.0737,-0.078,-0.0844,-0.0909,-0.0971,-0.0995,-0.1002,-0.0949,-0.091,-0.0768,-0.0714,-0.0493,-0.0359,-0.0123,0.0043,0.0192,0.0213,0.0238,0.0244,0.0244,0.016,0.0093,0.0167,0,0,0,0,0,-0.0747,-0.0795,-0.0868,-0.0934,-0.0995,-0.102,-0.1027,-0.1012,-0.0945,-0.0834,-0.0766,-0.0579,-0.0303,-0.0176,-0.0028,0.002,0.0212,0.0193,0.0236,0.0392,0.039,0.0312,0,0,0,0,0,0,-0.0755,-0.0828,-0.0865,-0.0935,-0.0981,-0.1028,-0.1032,-0.0991,-0.0914,-0.0827,-0.0674,-0.0565,-0.0299,-0.0384,-0.0029,0.0018,0.0058,0.0332,0.0334,0.0393,0.0391,0.0389,0.0308,0,0,0,0,0]}]]